Weather in Gam

Russia / Komi Republic     62°07′10″N   49°41′14″E
temp.,
°C
wind,
m/s
gust,
m/s
humid.,
%
clouds,
%
prec.,
mm/h
press.,
hPa
HPBL,
m
11 april, sun
sun1100:000s313910 0.0 1024343
03:000s312921 0.0 1023325
06:00+1s413874 0.0 1022416
09:00+5ssw5137491 0.0 1021806
12:00+4wsw51193100 0.3 1022863
15:00+6w59725 0.5 10241301
18:00+4wsw411755 0.0 1026515
21:00+1sw414870 0.0 1028440
12 april, mon
mon1200:00+1wsw515825 0.0 1030715
03:000wsw412875 0.0 1032538
06:000wsw412885 0.0 1034487
09:00+4wsw496621 0.0 1036679
12:00+8wsw58495 0.0 10361111
15:00+9wsw464651 0.0 10361229
18:00+6ssw3967100 0.0 1035267
21:00+3ssw41378100 0.0 1035389
13 april, tue
tue1300:00+4sw4147387 0.0 1034470
03:00+3sw3138571 0.0 1033361
06:00+3ssw3119067 0.0 1032342
09:00+8ssw4971100 0.0 1030534
12:00+10ssw51077100 0.1 1028775
15:00+9ssw41283100 0.2 1025707
18:00+10sw41184100 0.0 1023939
21:00+10sw41286100 0.0 1023882
14 april, wed
wed1400:00+9wsw31194100 0.1 1023500
03:00+8sw279784 0.1 1023177
06:00+8ssw279679 0.0 1022241
09:00+11ssw378495 0.0 1021374
12:00+13sw4973100 0.0 1019656
15:00+15sw51164100 0.0 10171251
18:00+13sw31172100 0.1 1016700
21:00+10nw51091100 2.5 1016717
15 april, thu
thu1500:00+7wnw3874100 0.3 1018877
03:00+5wnw2681100 0.8 1020743
06:00+5nw2480100 0.4 1020804
09:00+4ne1271100 1.0 1021699
12:00+5nne1263100 0.3 10211014
15:00+4ne1265100 0.6 1020875
18:00+4ese1168100 0.0 101944
21:00+2wsw1187100 0.0 101937